Location: Kitchener
(43.4500°N, 80.5000°W)
Time: 12:39:56
(UTC-04:00)

Daily predictions for brighter satellites

Satellite Brightness Start Highest point End
(mag) Time Altitude Azimuth Time Altitude Azimuth Time Altitude Azimuth
Cosmos 1624 Rocket 4.3 21:17:29 10° S 21:22:31 48° ESE 21:27:37 10° NNE
Envisat 3.4 21:18:35 10° SE 21:23:26 48° ENE 21:28:18 10° N
Cosmos 1939 Rocket 3.1 21:22:03 10° SSE 21:25:47 50° ENE 21:29:35 10° N
Okean 1-7 3.9 21:21:57 10° NNW 21:26:08 51° W 21:30:19 10° S
Cosmos 1238 Rocket 4.4 21:27:32 10° NE 21:29:12 13° ENE 21:30:55 10° ESE
H-2A R/B 4.2 21:27:26 10° E 21:29:33 12° ENE 21:31:39 10° NNE
SJ-11-01 4.3 21:25:50 10° SSE 21:30:35 84° ENE 21:35:22 10° NNW
NOSS 2-2 (E) 3.6 21:28:46 10° SSW 21:32:50 58° ESE 21:37:36 10° NE
Sich 1 Rocket 4.4 21:28:52 10° SSE 21:32:59 34° E 21:37:07 10° NNE
Meteor 2-10 Rocket 3.8 21:27:14 10° N 21:33:06 84° E 21:38:49 10° S
Cosmos 1461 3.6 21:28:49 10° SW 21:33:28 69° NW 21:38:00 10° NNE
SPOT 5 3.6 21:29:40 10° SE 21:34:38 45° ENE 21:39:43 10° N
ERBS 2.3 21:31:30 10° NW 21:34:59 89° NE 21:38:23 10° SE
ALOS 3.8 21:30:53 10° SSW 21:35:10 36° W 21:39:30 10° NNW
Cosmos 1674 Rocket 3.8 21:32:26 10° N 21:36:49 53° ENE 21:41:09 10° SSE
Cosmos 1606 3.8 21:34:26 10° NNE 21:37:57 30° ENE 21:41:22 10° SE
Cosmos 407 Rocket 3.9 21:34:50 10° N 21:39:57 50° ENE 21:45:02 10° SE
Terra 4.0 21:43:55 10° E 21:45:43 12° ENE 21:47:32 10° NE
Cosmos 1892 2.9 21:42:28 10° SSW 21:46:17 76° W 21:50:09 10° N
Cosmos 1452 Rocket 4.3 21:41:57 10° SSE 21:46:30 31° E 21:51:05 10° NE
ERS-1 Rocket 3.3 21:44:30 10° S 21:49:30 67° WSW 21:54:32 10° NNW
Cosmos 1190 Rocket 4.0 21:46:24 10° NNW 21:51:38 77° ENE 21:56:41 11° SSE
Cosmos 909 Rocket 4.3 21:45:11 10° SSW 21:51:42 86° ESE 21:59:39 10° NNE
OPS 6432 4.2 21:48:29 10° SSW 21:51:54 66° SE 21:54:59 10° NE
PSLV R/B 4.1 21:53:16 10° W 21:56:28 36° SSW 21:58:46 17° SE
Meteor 2-6 Rocket 4.3 21:50:32 10° N 21:56:33 83° E 22:02:24 10° SSE
Coronas F rocket 3.1 21:59:58 10° SW 22:02:24 32° WNW 22:04:51 10° N
Okean 3 4.2 21:59:26 10° N 22:03:29 38° ENE 22:06:18 17° SE
Cosmos 1975 Rocket 3.9 22:01:09 10° N 22:05:06 34° ENE 22:07:45 18° SE
USA 234 4.0 22:00:25 10° ENE 22:05:54 28° SE 22:11:22 10° S
Cosmos 2154 Rocket 4.0 22:01:20 10° S 22:07:28 65° E 22:13:36 10° NNE
Intercosmos 25 4.4 22:07:21 18° SE 22:08:42 22° E 22:11:19 10° NE
deb Chang Zheng 4 3.9 22:04:28 10° N 22:08:52 74° WNW 22:13:16 10° SSW
CZ-4B R/B 3.9 22:05:29 10° NNE 22:10:10 39° E 22:13:59 14° SSE
BREEZE-M DEB (TANK) 3.3 22:07:41 10° WSW 22:10:18 63° NNW 22:16:41 10° ENE
MetOp-B 4.1 22:07:40 12° SSE 22:12:34 80° ENE 22:17:56 10° NNW
SL-8 R/B 3.7 22:07:54 10° WSW 22:12:43 87° SSE 22:17:34 10° ENE
COSMOS 2406 3.9 22:09:11 10° NW 22:14:45 52° WSW 22:20:15 10° S
Cosmos 1908 Rocket 3.5 22:11:16 10° S 22:15:38 75° E 22:20:04 10° NNE
USA 245 3.0 22:19:18 26° SE 22:20:49 57° ENE 22:24:30 10° N
Cosmos 1733 Rocket 4.3 22:16:38 10° SSW 22:20:50 42° WNW 22:25:02 10° N
Cosmos 1378 Rocket 3.4 22:16:53 10° N 22:21:12 79° E 22:24:19 18° SSE
Cosmos 676 Rocket 4.0 22:16:21 10° NNW 22:21:34 84° ENE 22:25:21 19° SSE
SL-08 RB Rocket 4.2 22:18:57 21° SE 22:21:46 46° ENE 22:26:12 10° N
TIMED 4.4 22:18:32 10° S 22:22:52 67° ESE 22:27:13 10° NNE
ATLAS 5 CENTAUR R/B 3.2 22:17:44 10° NW 22:23:30 47° WSW 22:28:52 13° S
ARGOS 3.3 22:19:51 19° SSE 22:23:42 62° ENE 22:28:59 10° N
Cosmos 2056 Rocket 4.3 22:20:07 10° SW 22:25:09 53° WNW 22:30:11 10° NNE
Cosmos 1184 Rocket 3.0 22:24:38 27° SSE 22:26:06 49° E 22:29:22 10° NNE
CZ-3C R/B 4.3 22:16:25 10° SW 22:26:29 15° SSW 22:30:50 11° S
CZ-4 R/B 4.2 22:23:13 10° NNE 22:27:42 42° E 22:30:17 22° SSE
Cosmos 1174 3.0 22:25:07 10° NNW 22:28:27 88° ENE 22:29:37 35° SSE
Cosmos 1954 Rocket 4.0 22:23:20 10° NNW 22:28:34 76° ENE 22:31:54 23° SSE
Cosmos 1862 3.4 22:28:45 11° S 22:32:40 83° W 22:36:46 10° N
Cosmos 2278 Rocket 2.2 22:28:38 10° S 22:34:10 58° ESE 22:39:45 10° NNE
CENTAUR R/B 4.2 22:29:43 10° NW 22:36:49 38° WSW 22:44:15 10° S
Cosmos 1844 3.7 22:31:25 10° SSW 22:37:11 89° WNW 22:43:02 10° NNE
Cosmos 1833 Rocket 4.0 22:32:57 10° N 22:37:45 28° NE 22:40:56 17° E
SL-27 R/B 4.4 22:36:57 10° NW 22:40:01 25° W 22:42:44 12° SSW
Cosmos 1825 2.3 22:37:57 15° SSW 22:41:00 75° W 22:44:50 10° N
Cosmos 2084 3.2 22:37:52 11° SSW 22:41:29 53° ESE 22:45:15 10° NE
COSMOS 2487 2.4 22:39:53 10° NNW 22:43:32 85° ENE 22:44:48 38° SSE
COS B Rocket 4.4 22:39:40 10° NNW 22:43:41 43° W 22:47:18 11° SSW
Cosmos 1844 Rocket 3.3 22:39:38 10° SW 22:45:13 59° WNW 22:50:48 10° NNE
H-2A R/B 4.0 22:42:16 10° SSW 22:45:50 25° W 22:49:21 10° NW
APEX 3.9 22:50:10 36° SE 22:50:42 38° ESE 22:55:08 10° NE
Cosmos 1812 4.3 22:49:19 10° NNE 22:52:16 21° ENE 22:52:41 20° E
Cosmos 2082 Rocket 2.9 22:47:14 10° NNW 22:52:41 44° ENE 22:55:25 26° ESE
CZ-4C R/B 3.4 22:51:49 40° SE 22:52:59 61° ENE 22:56:58 10° N
YAOGAN 6 3.9 22:51:59 18° SSW 22:54:03 34° W 22:57:17 10° NNW
Cosmos 1408 3.5 22:52:39 14° SSW 22:55:33 47° WNW 22:59:07 10° N
Cosmos 2218 Rocket 4.0 22:59:14 25° S 23:03:06 69° E 23:09:29 10° NNE
Cosmos 1023 Rocket 4.4 22:58:11 10° NNW 23:03:18 80° WSW 23:05:34 34° S
Cosmos 2297 3.8 23:02:58 29° S 23:05:39 53° ESE 23:11:13 10° NNE
Okean 2 Rocket 3.4 23:02:50 20° SSW 23:05:48 64° W 23:10:11 10° N
Landsat 7 3.8 23:05:01 36° SSE 23:06:59 88° WSW 23:11:47 10° NNW
H-2A R/B 2.1 23:05:40 34° SSE 23:08:07 80° ENE 23:13:29 10° N
Cosmos 1238 Rocket 4.2 23:06:26 10° NW 23:09:05 25° W 23:10:42 18° SW
Cosmos 1242 Rocket 3.0 23:06:08 10° NNW 23:09:43 56° W 23:10:42 40° SSW
DELTA 2 DEB (DPAF) 4.1 23:09:30 40° S 23:11:06 81° WSW 23:15:36 10° NNW
Cosmos 1420 Rocket 4.0 23:08:59 18° SSW 23:12:54 87° WNW 23:18:09 10° NNE
BREEZE-M DEB 4.3 23:12:59 10° WSW 23:16:21 65° WNW 23:16:21 65° WNW
Cosmos 1727 Rocket 3.9 23:13:01 10° N 23:19:12 73° E 23:21:45 37° SSE
Terra 1.7 23:21:17 46° SSE 23:22:44 87° WSW 23:27:32 10° NNW
Spot 4 3.9 23:21:25 46° SE 23:22:47 72° ENE 23:27:38 10° N
ASTEX 1 3.7 23:20:11 10° NNE 23:24:59 49° E 23:25:46 44° ESE
IGS 5A 3.4 23:25:17 60° S 23:26:01 87° WSW 23:30:13 10° NNW
Cosmos 1959 Rocket 4.5 23:22:49 26° SSW 23:26:31 80° W 23:32:39 10° N
Timation 2 Rocket 4.1 23:26:54 10° NNW 23:32:47 59° WSW 23:35:01 37° S
Cosmos 614 Rocket 4.1 23:27:58 10° NNW 23:33:02 67° WSW 23:34:27 45° S
Okean 1 3.6 23:30:39 10° N 23:34:38 53° E 23:34:40 53° E
Cosmos 1140 Rocket 4.4 23:31:18 10° NW 23:36:05 40° WSW 23:37:56 30° SSW
SAR-Lupe-2 3.5 23:36:53 81° NNW 23:36:53 81° NNW 23:40:19 10° NNW
DNEPR-1 R/B 4.1 23:35:05 10° NW 23:40:18 51° WSW 23:41:08 45° SSW
BREEZE-M DEB (TANK) 3.7 23:42:16 10° NW 23:44:28 30° NNE 23:48:57 10° ENE
Cosmos 2369 Rocket 4.1 23:46:17 14° E 23:46:17 14° E 23:48:17 10° ENE
Meteor 1-20 Rocket 4.1 23:43:42 48° S 23:45:19 80° E 23:50:53 10° NNE
CARTOSAT-1 4.2 23:44:45 40° SW 23:45:35 46° W 23:49:45 10° NNW
Cosmos 1339 Rocket 4.4 23:41:53 10° N 23:48:01 82° W 23:50:09 44° S
USA 234 3.2 23:42:48 10° NE 23:49:22 84° NW 23:55:54 10° SW
Meteor 1-25 Rocket 4.3 23:47:59 39° SSW 23:50:16 81° W 23:56:08 10° N
DMSP B5D2-2 4.5 23:49:11 10° N 23:54:18 59° WNW 23:56:39 31° SW
